Weather History for North Adams, MA

Change the Weather History Date:

Saturday, May 18, 2013

  Actual Average Record
Temperature  
Mean Temperature 55 °F -  
Max Temperature 73 °F 65 °F 77 °F (1998)
Min Temperature 39 °F 43 °F 32 °F (2005)
Degree Days  
Heating Degree Days 10    
Growing Degree Days 5 (Base 50)    
Moisture  
Dew Point 37 °F    
Average Humidity 52    
Maximum Humidity 83    
Minimum Humidity 24    
Precipitation  
Precipitation 0.00 in - - ()
Sea Level Pressure  
Sea Level Pressure 30.27 in    
Wind  
Wind Speed 1 mph (West)    
Max Wind Speed 7 mph    
Max Gust Speed -    
Visibility 10 miles    
Events      
Averages and records for this station are not official NWS values.
T = Trace of Precipitation, MM = Missing Value Source: NWS Daily Summary

Daily Weather History Graph

Daily Weather History Graph

Search for Another Location

Airport:

Trip Planner

Search our weather history database for the weather conditions in past years. The results will help you decide how hot, cold, wet, or windy it might be!

Date:

Astronomy

May. 18, 2013 Rise Set
Actual Time 5:27 AM EDT 8:11 PM EDT
Civil Twilight 4:54 AM EDT 8:44 PM EDT
Nautical Twilight 4:13 AM EDT 9:25 PM EDT
Astronomical Twilight 3:25 AM EDT 10:13 PM EDT
Moon 1:03 PM EDT (5/18) 1:28 AM EDT (5/18)
Length of Visible Light 15h 50m
Length of Day
14h 44m
First Quarter, 55% of the Moon is Illuminated
May 18
First Quarter
May 25
Full
May 31
Last Quarter
Jun 8
New
Jun 16
First Quarter

Hourly Weather History & Observations

Time (EDT) Temp. Dew Point Humidity Pressure Visibility Wind Dir Wind Speed Gust Speed Precip Events Conditions
12:52 AM 45.0 °F 39.0 °F 80% 30.25 in 10.0 mi Calm Calm - N/A   Mostly Cloudy
1:52 AM 45.0 °F 37.9 °F 76% 30.25 in 10.0 mi Calm Calm - N/A   Overcast
2:52 AM 43.0 °F 37.0 °F 80% 30.25 in 10.0 mi Calm Calm - N/A   Overcast
3:52 AM 39.9 °F 35.1 °F 83% 30.26 in 10.0 mi Calm Calm - N/A   Partly Cloudy
4:52 AM 41.0 °F 36.0 °F 82% 30.28 in 10.0 mi Calm Calm - N/A   Overcast
5:52 AM 41.0 °F 36.0 °F 82% 30.30 in 10.0 mi Calm Calm - N/A   Overcast
6:52 AM 44.1 °F 39.0 °F 82% 30.31 in 10.0 mi Calm Calm - N/A   Mostly Cloudy
7:52 AM 50.0 °F 37.0 °F 61% 30.32 in 10.0 mi Calm Calm - N/A   Partly Cloudy
8:52 AM 55.9 °F 37.0 °F 49% 30.32 in 10.0 mi Calm Calm - N/A   Scattered Clouds
9:52 AM 62.1 °F 36.0 °F 38% 30.30 in 10.0 mi Calm Calm - N/A   Clear
10:52 AM 66.9 °F 34.0 °F 30% 30.29 in 10.0 mi Variable 4.6 mph - N/A   Partly Cloudy
11:52 AM 66.9 °F 33.1 °F 28% 30.28 in 10.0 mi Calm Calm - N/A   Mostly Cloudy
12:52 PM 69.1 °F 30.9 °F 24% 30.26 in 10.0 mi Variable 4.6 mph - N/A   Scattered Clouds
1:52 PM 70.0 °F 30.9 °F 24% 30.25 in 10.0 mi Calm Calm - N/A   Scattered Clouds
2:52 PM 70.0 °F 33.1 °F 26% 30.23 in 10.0 mi Variable 3.5 mph - N/A   Scattered Clouds
3:52 PM 71.1 °F 33.1 °F 25% 30.22 in 10.0 mi Variable 3.5 mph - N/A   Clear
4:52 PM 70.0 °F 33.1 °F 26% 30.22 in 10.0 mi West 5.8 mph - N/A   Partly Cloudy
5:52 PM 69.1 °F 36.0 °F 30% 30.22 in 10.0 mi West 5.8 mph - N/A   Clear
6:52 PM 66.0 °F 37.9 °F 36% 30.23 in 10.0 mi WSW 5.8 mph - N/A   Clear
7:52 PM 63.0 °F 39.9 °F 43% 30.24 in 10.0 mi West 6.9 mph - N/A   Clear
8:52 PM 59.0 °F 41.0 °F 51% 30.26 in 10.0 mi Calm Calm - N/A   Clear
9:52 PM 55.9 °F 41.0 °F 57% 30.28 in 10.0 mi Calm Calm - N/A   Clear
10:52 PM 53.1 °F 41.0 °F 64% 30.27 in 10.0 mi Calm Calm - N/A   Clear
11:52 PM 52.0 °F 42.1 °F 69% 30.28 in 10.0 mi Calm Calm - N/A   Clear